Regional Weather Roundup
Issued by NWS

Home | Current Version | Previous Version | Graphics & Text | Print | Product List | Glossary On
Versions: 1 2 3 4 5 6 7 8 9 10 11 12 13 14 15 16 17 18 19 20 21 22 23 24 25 26 27 28
000
ASUS45 KCYS 271810
RWRWY

WYOMING REGIONAL WEATHER ROUNDUP
NATIONAL WEATHER SERVICE CHEYENNE WY
1200 PM MDT WED JUL 27 2016

NOTE:  "FAIR" INDICATES FEW OR NO CLOUDS BELOW 12,000 FEET
WITH NO SIGNIFICANT WEATHER AND/OR OBSTRUCTIONS TO VISIBILITY.

WYZ001-271900-
YELLOWSTONE NATIONAL PARK

CITY           SKY/WX    TMP DP  RH WIND       PRES   REMARKS
LK YELLOWSTONE   N/A     68  38  33 CALM      30.42S
6HR MIN TEMP:  39; 6HR MAX TEMP:  68;

W YELLOWSTONE  NOT AVBL

$$
WYZ002>013-054>058-071-098>099-271900-
NORTHERN WYOMING

CITY           SKY/WX    TMP DP  RH WIND       PRES   REMARKS
JACKSON        SUNNY     75  37  25 CALM      30.30F
CODY           FAIR      77  46  33 N12       30.21S
GREYBULL       FAIR      82  46  28 SE7       30.13S
6HR MIN TEMP:  62; 6HR MAX TEMP:  83;

WORLAND        FAIR      81  48  31 NW6       30.15S
6HR MIN TEMP:  57; 6HR MAX TEMP:  81;

SHERIDAN       FAIR      84  51  31 VRB5      30.16R
6HR MIN TEMP:  64; 6HR MAX TEMP:  84;

BUFFALO        FAIR      82  53  36 N9        30.21R
6HR MIN TEMP:  62; 6HR MAX TEMP:  82;

GILLETTE       FAIR      84  52  33 N7        30.16S
6HR MIN TEMP:  64; 6HR MAX TEMP:  84;

HULETT         FAIR      73  57  56 N10       30.21S
NEWCASTLE      FAIR      75  52  43 CALM      30.18S

$$
WYZ014>020-022>026-101>103-271900-
CENTRAL WYOMING

CITY           SKY/WX    TMP DP  RH WIND       PRES   REMARKS
BIG PINEY      FAIR      80  34  19 VRB5      30.33F HAZE
6HR MIN TEMP:  44; 6HR MAX TEMP:  80;

PINEDALE       FAIR      77  28  16 N7        30.35S
DUBOIS         MOCLDY    75  34  22 E3        30.33S
LANDER         FAIR      81  46  29 VRB6      30.23F
6HR MIN TEMP:  59; 6HR MAX TEMP:  81;

RIVERTON       FAIR      80  48  32 VRB5      30.23S
6HR MIN TEMP:  62; 6HR MAX TEMP:  80;

CASPER         FAIR      81  46  29 VRB5      30.19F
6HR MIN TEMP:  58; 6HR MAX TEMP:  82;

DOUGLAS          N/A    N/A N/A N/A MISG      30.18F

$$
WYZ021-027>030-104>119-271900-
SOUTHERN WYOMING

CITY           SKY/WX    TMP DP  RH WIND       PRES   REMARKS
EVANSTON       FAIR      84  24  11 W15G24    30.35S
6HR MIN TEMP:  58; 6HR MAX TEMP:  84;

KEMMERER         N/A     81  18   9 W10G17    30.36S
FORT BRIDGER   FAIR      85  21   9 W13G20    30.36S
ROCK SPRINGS   FAIR      81  25  12 MISG      30.31F
6HR MIN TEMP:  57; 6HR MAX TEMP:  83;

DIXON          FAIR      85  36  17 SW7       30.31F
RAWLINS        FAIR      82  33  17 SW13      30.30F
6HR MIN TEMP:  50; 6HR MAX TEMP:  82;

SARATOGA       FAIR      81  36  19 NW13G20   30.32S
LARAMIE        FAIR      80  35  19 VRB3      30.30F
6HR MIN TEMP:  49; 6HR MAX TEMP:  81;

CHEYENNE       FAIR      78  52  40 MISG      30.27S
6HR MIN TEMP:  59; 6HR MAX TEMP:  78; 6HR PCP: TRACE;

TORRINGTON     FAIR      80  55  42 SE8       30.15F
6HR MIN TEMP:  61; 6HR MAX TEMP:  81; 6HR PCP:  0.01;

PINE BLUFFS    FAIR      77  54  44 E3        30.22S

$$




USA.gov is the U.S. government's official web portal to all federal, state and local government web resources and services.